Location: Archamps
(46.1365°N, 6.1329°E)
Time: 17:30:44
(UTC+00:00)

COSMO-SKYMED 1 - Pass Details

Date: 28 January 2023
Orbit: 621 x 623 km, 97.9° (Epoch: 30 March)

Event Time Altitude Azimuth Distance (km) Brightness Sun altitude
Rises 18:28:37 0° 5° (N) 2,920 5.9 -19.8°
Reaches altitude 10° 18:30:57 10° 357° (N) 2,008 5.2 -20.2°
Maximum altitude 18:34:55 35° 291° (WNW) 1,012 4.1 -20.9°
Drops below altitude 10° 18:38:52 10° 226° (SW) 1,993 5.8 -21.6°
Sets 18:41:10 0° 218° (SW) 2,895 6.6 -22.0°
